When you browse on this site, cookies collect data to enhance your experience and personalize the content and advertising you see.
Visit our Privacy Policy to learn more. By continuing to use the site, you agree to this use of cookies and data.
  • In Hungary
  • List of Countries
  • For 7 days
  • Water Temperature
  • Weather Map
  • News
  • Weather Widgets
  • user-avatar
    Login

    Hourly Weather Tricase

    Today, 3 April, Friday

    Time Temperature Precipitation Wind Pressure Humidity
    00:00 +6°C° 0 mm 2 mps 750 mmHg 75%
    01:00 +6°C° 0 mm 2 mps 750 mmHg 76%
    02:00 +6°C° 0 mm 2 mps 749 mmHg 76%
    03:00 +6°C° 0 mm 2 mps 749 mmHg 76%
    04:00 +6°C° 0 mm 2 mps 749 mmHg 75%
    05:00 +7°C° 0 mm 2 mps 749 mmHg 73%
    06:00 +8°C° 0 mm 2 mps 749 mmHg 70%
    07:00 +9°C° 0 mm 2 mps 749 mmHg 68%
    08:00 +10°C° 0.1 mm 2 mps 749 mmHg 64%
    09:00 +12°C° 0.1 mm 2 mps 749 mmHg 60%
    10:00 +13°C° 0.1 mm 1 mps 750 mmHg 56%
    11:00 +13°C° 0.4 mm 2 mps 750 mmHg 62%
    12:00 +12°C° 0.4 mm 2 mps 749 mmHg 68%
    13:00 +12°C° 0.4 mm 2 mps 749 mmHg 74%
    14:00 +10°C° 0.7 mm 3 mps 749 mmHg 79%
    15:00 +10°C° 0.7 mm 3 mps 749 mmHg 84%
    16:00 +9°C° 0.7 mm 3 mps 749 mmHg 89%
    17:00 +8°C° 0.5 mm 4 mps 749 mmHg 90%
    18:00 +8°C° 0.5 mm 4 mps 749 mmHg 92%
    19:00 +8°C° 0.5 mm 4 mps 748 mmHg 93%
    20:00 +8°C° 0.2 mm 5 mps 748 mmHg 92%
    21:00 +8°C° 0.2 mm 5 mps 749 mmHg 91%
    22:00 +8°C° 0.2 mm 5 mps 749 mmHg 89%
    23:00 +8°C° 0 mm 6 mps 749 mmHg 87%

    Tomorrow, 4 April, Saturday

    Time Temperature Precipitation Wind Pressure Humidity
    00:00 +8°C° 0 mm 6 mps 749 mmHg 84%
    01:00 +8°C° 0 mm 7 mps 749 mmHg 82%
    02:00 +7°C° 0 mm 8 mps 748 mmHg 81%
    03:00 +7°C° 0 mm 9 mps 748 mmHg 81%
    04:00 +7°C° 0 mm 9 mps 747 mmHg 80%
    05:00 +8°C° 0 mm 10 mps 747 mmHg 79%
    06:00 +8°C° 0 mm 10 mps 747 mmHg 78%
    07:00 +9°C° 0 mm 11 mps 747 mmHg 78%
    08:00 +11°C° 0 mm 11 mps 747 mmHg 74%
    09:00 +12°C° 0 mm 12 mps 747 mmHg 70%
    10:00 +13°C° 0 mm 12 mps 748 mmHg 66%
    11:00 +14°C° 0 mm 12 mps 747 mmHg 63%
    12:00 +14°C° 0 mm 12 mps 747 mmHg 59%
    13:00 +14°C° 0 mm 12 mps 747 mmHg 56%
    14:00 +14°C° 0 mm 12 mps 747 mmHg 57%
    15:00 +14°C° 0 mm 12 mps 747 mmHg 58%
    16:00 +13°C° 0 mm 12 mps 747 mmHg 59%
    17:00 +13°C° 0 mm 11 mps 747 mmHg 62%
    18:00 +12°C° 0 mm 10 mps 747 mmHg 64%
    19:00 +12°C° 0 mm 10 mps 747 mmHg 67%
    20:00 +11°C° 0 mm 9 mps 748 mmHg 68%
    21:00 +11°C° 0 mm 8 mps 748 mmHg 69%
    22:00 +11°C° 0 mm 7 mps 748 mmHg 70%
    23:00 +11°C° 0 mm 7 mps 748 mmHg 73%

    Day after tomorrow, 5 April, Sunday

    Time Temperature Precipitation Wind Pressure Humidity
    00:00 +11°C° 0 mm 7 mps 748 mmHg 75%
    01:00 +10°C° 0 mm 7 mps 748 mmHg 78%
    02:00 +10°C° 0 mm 8 mps 748 mmHg 76%
    03:00 +10°C° 0 mm 8 mps 748 mmHg 74%
    04:00 +10°C° 0 mm 9 mps 748 mmHg 72%
    05:00 +11°C° 0 mm 9 mps 748 mmHg 73%
    06:00 +11°C° 0 mm 8 mps 748 mmHg 73%
    07:00 +11°C° 0 mm 8 mps 749 mmHg 73%
    08:00 +12°C° 0 mm 8 mps 749 mmHg 68%
    09:00 +15°C° 0 mm 7 mps 749 mmHg 63%
    10:00 +16°C° 0 mm 7 mps 750 mmHg 58%
    11:00 +16°C° 0 mm 8 mps 750 mmHg 58%
    12:00 +16°C° 0 mm 8 mps 750 mmHg 57%
    13:00 +17°C° 0 mm 8 mps 750 mmHg 56%
    14:00 +16°C° 0 mm 8 mps 750 mmHg 57%
    15:00 +16°C° 0 mm 8 mps 750 mmHg 57%
    16:00 +16°C° 0 mm 8 mps 750 mmHg 58%
    17:00 +15°C° 0 mm 8 mps 751 mmHg 62%
    18:00 +14°C° 0 mm 7 mps 751 mmHg 67%
    19:00 +13°C° 0 mm 6 mps 751 mmHg 71%
    20:00 +13°C° 0 mm 5 mps 752 mmHg 72%
    21:00 +13°C° 0 mm 5 mps 753 mmHg 74%
    22:00 +13°C° 0 mm 5 mps 753 mmHg 75%
    23:00 +13°C° 0 mm 5 mps 754 mmHg 75%

    6 April, Monday

    Time Temperature Precipitation Wind Pressure Humidity
    00:00 +13°C° 0 mm 5 mps 754 mmHg 74%
    01:00 +13°C° 0 mm 5 mps 754 mmHg 74%
    02:00 +13°C° 0 mm 5 mps 754 mmHg 76%
    03:00 +13°C° 0 mm 4 mps 755 mmHg 77%
    04:00 +12°C° 0 mm 3 mps 755 mmHg 79%
    05:00 +12°C° 0.1 mm 3 mps 755 mmHg 78%
    06:00 +13°C° 0.1 mm 3 mps 756 mmHg 77%
    07:00 +13°C° 0.1 mm 3 mps 756 mmHg 76%
    08:00 +14°C° 0 mm 4 mps 757 mmHg 69%
    09:00 +15°C° 0 mm 5 mps 757 mmHg 61%
    10:00 +16°C° 0 mm 5 mps 758 mmHg 54%
    11:00 +16°C° 0 mm 5 mps 758 mmHg 53%
    12:00 +16°C° 0 mm 5 mps 758 mmHg 52%
    13:00 +16°C° 0 mm 6 mps 758 mmHg 51%
    14:00 +16°C° 0 mm 5 mps 758 mmHg 52%
    15:00 +16°C° 0 mm 5 mps 758 mmHg 54%
    16:00 +15°C° 0 mm 5 mps 757 mmHg 56%
    17:00 +15°C° 0 mm 5 mps 758 mmHg 59%
    18:00 +14°C° 0 mm 5 mps 758 mmHg 62%
    19:00 +13°C° 0 mm 4 mps 758 mmHg 64%
    20:00 +12°C° 0 mm 4 mps 758 mmHg 67%
    21:00 +12°C° 0 mm 4 mps 759 mmHg 69%
    22:00 +12°C° 0 mm 4 mps 759 mmHg 71%
    23:00 +12°C° 0 mm 4 mps 759 mmHg 73%

    7 April, Tuesday

    Time Temperature Precipitation Wind Pressure Humidity
    00:00 +11°C° 0 mm 4 mps 759 mmHg 75%
    01:00 +11°C° 0 mm 4 mps 759 mmHg 77%
    02:00 +11°C° 0 mm 4 mps 759 mmHg 74%
    03:00 +11°C° 0 mm 4 mps 758 mmHg 72%
    04:00 +10°C° 0 mm 4 mps 758 mmHg 69%
    05:00 +11°C° 0 mm 4 mps 759 mmHg 65%
    06:00 +12°C° 0 mm 5 mps 759 mmHg 61%
    07:00 +12°C° 0 mm 5 mps 759 mmHg 58%
    08:00 +13°C° 0 mm 6 mps 759 mmHg 52%
    09:00 +14°C° 0 mm 6 mps 759 mmHg 45%
    10:00 +16°C° 0 mm 6 mps 759 mmHg 39%
    11:00 +16°C° 0 mm 6 mps 759 mmHg 38%
    12:00 +16°C° 0 mm 6 mps 760 mmHg 36%
    13:00 +17°C° 0 mm 6 mps 760 mmHg 34%
    14:00 +16°C° 0 mm 6 mps 759 mmHg 36%
    15:00 +16°C° 0 mm 7 mps 759 mmHg 37%
    16:00 +15°C° 0 mm 7 mps 759 mmHg 38%
    17:00 +14°C° 0 mm 7 mps 759 mmHg 46%
    18:00 +12°C° 0 mm 7 mps 759 mmHg 54%
    19:00 +10°C° 0 mm 7 mps 759 mmHg 63%
    20:00 +10°C° 0 mm 7 mps 759 mmHg 65%
    21:00 +10°C° 0 mm 7 mps 759 mmHg 67%
    22:00 +10°C° 0 mm 7 mps 760 mmHg 69%
    23:00 +10°C° 0 mm 7 mps 760 mmHg 70%

    8 April, Wednesday

    Time Temperature Precipitation Wind Pressure Humidity
    00:00 +10°C° 0 mm 6 mps 760 mmHg 71%
    01:00 +10°C° 0 mm 5 mps 760 mmHg 73%
    02:00 +9°C° 0 mm 5 mps 759 mmHg 75%
    03:00 +10°C° 0 mm 4 mps 759 mmHg 77%
    04:00 +10°C° 0 mm 3 mps 759 mmHg 80%
    05:00 +11°C° 0 mm 4 mps 759 mmHg 76%
    06:00 +12°C° 0 mm 4 mps 759 mmHg 72%
    07:00 +13°C° 0 mm 5 mps 759 mmHg 68%
    08:00 +14°C° 0 mm 5 mps 759 mmHg 61%
    09:00 +15°C° 0 mm 6 mps 759 mmHg 53%
    10:00 +16°C° 0 mm 6 mps 760 mmHg 46%
    11:00 +16°C° 0 mm 7 mps 759 mmHg 45%
    12:00 +16°C° 0 mm 7 mps 759 mmHg 43%
    13:00 +16°C° 0 mm 8 mps 759 mmHg 42%
    14:00 +16°C° 0 mm 8 mps 759 mmHg 45%
    15:00 +15°C° 0 mm 8 mps 758 mmHg 48%
    16:00 +15°C° 0 mm 9 mps 758 mmHg 51%
    17:00 +13°C° 0 mm 8 mps 758 mmHg 58%
    18:00 +11°C° 0 mm 7 mps 758 mmHg 65%
    19:00 +10°C° 0 mm 7 mps 758 mmHg 73%
    20:00 +10°C° 0 mm 7 mps 758 mmHg 74%
    21:00 +10°C° 0 mm 7 mps 759 mmHg 75%
    22:00 +10°C° 0 mm 7 mps 759 mmHg 76%
    23:00 +10°C° 0 mm 7 mps 759 mmHg 76%
    Show more